Location: Góry Miechowskie
(50.3599°N, 20.1803°E)
Time: 21:57:18
(UTC+00:00)

S-56A Canister/Altair - Pass Details

Date: 15 September 2024
Orbit: 636 x 2487 km, 38.9° (Epoch: 09 October)

Event Time Altitude Azimuth Distance (km) Brightness Sun altitude
Rises 17:29:26 0° 225° (SW) 3,276 11.3 -6.7°
Reaches altitude 10° 17:31:57 10° 212° (SSW) 2,520 10.4 -7.1°
Maximum altitude 17:36:52 27° 157° (SSE) 1,953 9.3 -7.9°
Enters shadow 17:43:21 10° 105° (ESE) 3,440 10.1 -8.9°
Drops below altitude 10° 17:43:28 10° 104° (ESE) 3,473 - -8.9°
Sets 17:47:37 0° 94° (E) 4,802 - -9.5°
